Weather History for Broomfield, CO

Change the Weather History Date:

Tuesday, January 29, 2013

  Actual Average Record
Temperature  
Mean Temperature 29 °F -  
Max Temperature 39 °F 43 °F 60 °F (2011)
Min Temperature 15 °F 24 °F -4 °F (1991)
Degree Days  
Heating Degree Days 36    
Moisture  
Dew Point 15 °F    
Average Humidity 69    
Maximum Humidity 93    
Minimum Humidity 37    
Precipitation  
Precipitation 0.00 in - - ()
Sea Level Pressure  
Sea Level Pressure 29.74 in    
Wind  
Wind Speed 5 mph (ENE)    
Max Wind Speed 16 mph    
Max Gust Speed -    
Visibility 9 miles    
Events Fog , Snow    
Averages and records for this station are not official NWS values.
T = Trace of Precipitation, MM = Missing Value Source: NWS Daily Summary

Daily Weather History Graph

Daily Weather History Graph

Search for Another Location

Airport:

Trip Planner

Search our weather history database for the weather conditions in past years. The results will help you decide how hot, cold, wet, or windy it might be!

Date:

Astronomy

Jan. 29, 2013 Rise Set
Actual Time 7:11 AM MST 5:16 PM MST
Civil Twilight 6:42 AM MST 5:45 PM MST
Nautical Twilight 6:09 AM MST 6:17 PM MST
Astronomical Twilight 5:38 AM MST 6:49 PM MST
Moon 8:15 PM MST (1/29) 8:09 AM MST (1/29)
Length of Visible Light 11h 03m
Length of Day
10h 05m
Waning Gibbous, 93% of the Moon is Illuminated
Jan 29
Waning Gibbous
Feb 3
Last Quarter
Feb 10
New
Feb 17
First Quarter
Feb 25
Full

Hourly Weather History & Observations

Time (MST) Temp. Windchill Dew Point Humidity Pressure Visibility Wind Dir Wind Speed Gust Speed Precip Events Conditions
12:16 AM 26.6 °F 19.1 °F 23.0 °F 86% 29.71 in 2.0 mi East 6.9 mph - N/A Snow Light Snow
12:36 AM 26.6 °F 22.6 °F 23.0 °F 86% 29.71 in 2.5 mi ENE 3.5 mph - N/A Snow Light Snow
12:55 AM 26.6 °F 22.6 °F 21.2 °F 80% 29.72 in 2.5 mi ESE 3.5 mph - N/A Snow Light Snow
1:16 AM 26.6 °F 21.2 °F 21.2 °F 80% 29.71 in 2.0 mi ESE 4.6 mph - N/A Snow Light Snow
1:36 AM 24.8 °F 19.1 °F 21.2 °F 86% 29.71 in 1.8 mi ESE 4.6 mph - N/A Snow Light Snow
1:56 AM 24.8 °F 20.5 °F 21.2 °F 86% 29.71 in 1.8 mi ESE 3.5 mph - N/A Snow Light Snow
2:16 AM 24.8 °F 20.5 °F 21.2 °F 86% 29.70 in 1.8 mi SE 3.5 mph - N/A Snow Light Snow
2:36 AM 23.0 °F 15.8 °F 21.2 °F 93% 29.69 in 2.5 mi ESE 5.8 mph - N/A Snow Light Snow
2:56 AM 23.0 °F 17.0 °F 21.2 °F 93% 29.69 in 4.0 mi SE 4.6 mph - N/A Snow Light Snow
3:15 AM 23.0 °F 18.4 °F 21.2 °F 93% 29.69 in 5.0 mi SSE 3.5 mph - N/A Snow Light Snow
3:35 AM 23.0 °F 18.4 °F 19.4 °F 86% 29.69 in 7.0 mi South 3.5 mph - N/A   Mostly Cloudy
4:16 AM 23.0 °F 18.4 °F 21.2 °F 93% 29.68 in 10.0 mi SSE 3.5 mph - N/A   Overcast
4:36 AM 23.0 °F 15.8 °F 21.2 °F 93% 29.68 in 10.0 mi SSE 5.8 mph - N/A   Overcast
5:43 AM 21.2 °F 16.4 °F 19.4 °F 93% 29.67 in 8.0 mi Variable 3.5 mph - N/A   Mostly Cloudy
6:49 AM 21.2 °F - 17.6 °F 86% 29.68 in 10.0 mi Calm Calm - N/A Fog Mostly Cloudy
7:47 AM 23.0 °F 13.9 °F 15.8 °F 74% 29.67 in 30.0 mi SW 8.1 mph - N/A   Mostly Cloudy
8:47 AM 23.0 °F 12.4 °F 3.2 °F 43% 29.67 in 30.0 mi West 10.4 mph - N/A   Mostly Cloudy
9:47 AM 39.2 °F 35.0 °F 24.8 °F 56% 29.68 in 30.0 mi NNW 5.8 mph - N/A   Mostly Cloudy
10:47 AM 26.6 °F 19.1 °F 3.2 °F 37% 29.69 in 30.0 mi NW 6.9 mph - N/A   Mostly Cloudy
11:51 AM 26.6 °F 20.0 °F 5.0 °F 40% 29.66 in 50.0 mi North 5.8 mph - N/A   Mostly Cloudy
12:51 PM 28.4 °F 22.2 °F 6.8 °F 40% 29.65 in 40.0 mi Variable 5.8 mph - N/A   Mostly Cloudy
1:53 PM 28.4 °F 21.2 °F 6.8 °F 40% 29.65 in 40.0 mi NE 6.9 mph - N/A   Mostly Cloudy
2:53 PM 28.4 °F 24.6 °F 6.8 °F 40% 29.68 in 40.0 mi Variable 3.5 mph - N/A   Mostly Cloudy
3:56 PM 28.4 °F 23.3 °F 6.8 °F 40% 29.70 in 40.0 mi West 4.6 mph - N/A   Mostly Cloudy
5:53 PM 26.6 °F 20.0 °F 10.4 °F 51% 29.78 in 20.0 mi NW 5.8 mph - N/A   Mostly Cloudy
6:47 PM 24.8 °F 11.9 °F 10.4 °F 54% 29.81 in 20.0 mi NNW 16.1 mph - N/A   Overcast
7:47 PM 24.8 °F 14.0 °F 12.2 °F 59% 29.85 in 20.0 mi North 11.5 mph - N/A   Mostly Cloudy
8:46 PM 21.2 °F 10.9 °F 12.2 °F 68% 29.87 in 20.0 mi NNW 9.2 mph - N/A   Mostly Cloudy
9:47 PM 21.2 °F 10.9 °F 10.4 °F 63% 29.89 in 20.0 mi NNW 9.2 mph - N/A   Mostly Cloudy
10:16 PM 21.2 °F 16.4 °F 12.2 °F 68% 29.90 in 10.0 mi NNE 3.5 mph - N/A   Overcast
10:36 PM 21.2 °F 16.4 °F 10.4 °F 63% 29.90 in 10.0 mi NNE 3.5 mph - N/A   Overcast
10:56 PM 21.2 °F - 10.4 °F 63% 29.91 in 10.0 mi Calm Calm - N/A   Mostly Cloudy
11:35 PM 19.4 °F 14.3 °F 10.4 °F 68% 29.91 in 10.0 mi ENE 3.5 mph - N/A   Clear
11:56 PM 15.8 °F 8.6 °F 8.6 °F 73% 29.91 in 10.0 mi WSW 4.6 mph - N/A   Clear